COSMOS 2485 (747)

Last updated on Wed Apr 23 2025 00:03:11 GMT+0000 (Coordinated Universal Time)

1 39155U 13019A 25112.45550488 .00000068 00000+0 00000+0 0 9999 2 39155 65.1910 87.7485 0024421 238.0980 121.6611 2.13104469 93313
UTC large
Height (km)
Speed (km/s)
/
Latitude / Longitude
Inclination (degrees)
Orbital Period (minutes)
Azimuth
Elevation
Range (km)
Doppler Factor

Next 0 passes for location: London (51.5072 / 0.1276)

Sorry there are no passes over London.